EncompDEV
CodeWizard

Download Field Explorer Pro and search all Standard, Virtual, Custom and RDB Fields in your Encompass

Search Fields in containing Field Changes
Your Field Search History
Time Search Version Fields
11/13/2018 11:05 min 18.4 232
Global Field Search History
Time Search Version Fields
11/13/2018 11:05 min 18.4 232
11/13/2018 11:05 Borr Declarations L 18.4 32
11/13/2018 11:05 Bor 18.4 3,801
11/13/2018 11:05 BenOrgTyp 18.4 2
11/13/2018 11:05 checkbox 18.4 46
11/13/2018 11:05 BRanch 18.4 100
11/13/2018 11:05 BE0019 18.4 2
11/13/2018 11:05 BE0012 18.4 2
11/13/2018 11:05 BE0007 18.4 2
11/13/2018 11:05 BANK 18.4 70
11/13/2018 11:05 Aus submission 18.4 32
11/13/2018 11:04 Assump 18.4 24
11/13/2018 11:04 Amortization 18.4 32
11/13/2018 11:04 Adjustments and Other 18.4 25
11/13/2018 11:04 AUSTRACKING.AUS.X108 18.4 1
11/13/2018 11:04 AUS.X3 18.4 22
11/13/2018 11:04 language 18.4 3
11/13/2018 11:04 AUS.X15 18.4 22
11/13/2018 11:04 AUS.X 4 18.4 74
11/13/2018 11:04 ARM.IdxLkbckPrd 18.4 1
11/13/2018 11:04 ARM INDEX TYPE 18.4 3
11/13/2018 11:04 AGE 18.4 2,182
11/13/2018 11:04 CASASRN.X163 18.4 1
11/13/2018 11:04 960 18.4 21
11/13/2018 11:04 958 18.4 22
11/13/2018 11:04 Lender ID 18.4 268
11/13/2018 11:03 934 18.4 32
11/13/2018 11:03 91 18.4 698
11/13/2018 11:03 CD3.X14 18.4 99
11/13/2018 11:03 9 18.4 9,503
11/13/2018 11:03 879 18.4 20
11/13/2018 11:03 878 18.4 20
11/13/2018 11:03 value 18.4 246
11/13/2018 11:03 precon 18.4 36
11/13/2018 11:02 86 18.4 436
11/13/2018 11:02 834 18.4 63
11/13/2018 11:02 active 18.4 1
11/13/2018 11:02 830 18.4 67
11/13/2018 11:02 828 18.4 66
11/13/2018 11:02 820 18.4 77
11/13/2018 11:02 eDiscl 18.4 47
11/13/2018 11:02 801i 18.4 42
11/13/2018 11:02 Flood Certific 18.4 5
11/13/2018 11:02 conta 18.4 1,171
11/13/2018 11:02 801h 18.4 42
11/13/2018 11:02 800 18.4 365
11/13/2018 11:02 Third Party 18.4 41
11/13/2018 11:01 748 18.4 33
11/13/2018 11:01 newhud2.x23 18.4 92
11/13/2018 11:01 concessions 18.4 17
11/13/2018 11:01 740 18.4 44
11/13/2018 11:01 736 18.4 34
11/13/2018 11:01 700 18.4 30
11/13/2018 11:01 Fee Details 18.4 3,687
11/13/2018 11:01 698 18.4 24
11/13/2018 11:01 680 18.4 34
11/13/2018 11:01 626 18.4 13
11/13/2018 11:01 VEND.X135 18.4 1
11/13/2018 11:01 cr 18.4 2,286
11/13/2018 11:01 590 18.4 12
11/13/2018 11:01 578 18.4 13
11/13/2018 11:01 576 18.4 12
11/13/2018 11:01 563 18.4 13
11/13/2018 11:00 474 18.4 44
11/13/2018 11:00 461 18.4 47
11/13/2018 11:00 1487 18.4 2
11/13/2018 11:00 HMDA.x21 18.4 1
11/13/2018 11:00 si 18.4 9,715
11/13/2018 11:00 4506-T 18.4 22
11/13/2018 11:00 425 18.4 111
11/13/2018 11:00 232 18.4 49
11/13/2018 11:00 4243 18.4 2
11/13/2018 11:00 4198 18.4 1
11/13/2018 11:00 MORNET X40 18.4 1
11/13/2018 11:00 4192 18.4 1
11/13/2018 10:59 4148 18.4 2
11/13/2018 10:59 4144 18.4 2
11/13/2018 10:59 4142 18.4 2
11/13/2018 10:59 FNMA 18.4 29
11/13/2018 10:59 186 18.4 55
11/13/2018 10:59 4085 18.4 2
11/13/2018 10:59 closing template 18.4 1
11/13/2018 10:59 4004 18.4 3
11/13/2018 10:59 4000 18.4 2
11/13/2018 10:59 400 18.4 61
11/13/2018 10:59 3977 18.4 2
11/13/2018 10:59 his 18.4 100
11/13/2018 10:58 37 18.4 1,946
11/13/2018 10:58 3656 18.4 2
11/13/2018 10:58 NOTICES.X96 18.4 1
11/13/2018 10:58 364 18.4 58
11/13/2018 10:58 356 18.4 54
11/13/2018 10:58 cd5.x15 18.4 1
11/13/2018 10:58 3555 18.4 2
11/13/2018 10:58 3548 18.4 2
11/13/2018 10:58 3534 18.4 13
11/13/2018 10:58 lender cr 18.4 51
11/13/2018 10:57 3531 18.4 1
11/13/2018 10:57 3528 18.4 13
11/13/2018 10:57 334 18.4 48
11/13/2018 10:57 interest res 18.4 301
11/13/2018 10:57 3267 18.4 1
11/13/2018 10:57 3258 18.4 2
11/13/2018 10:57 91 18.4 697
11/13/2018 10:57 3232 18.4 1
11/13/2018 10:57 32 18.4 1,180
11/13/2018 10:57 3196 18.4 2
11/13/2018 10:56 SERVIC 18.4 840
11/13/2018 10:56 1639 18.4 3
11/13/2018 10:56 3166 18.4 3
11/13/2018 10:56 611 18.4 15
11/13/2018 10:56 3157 18.4 2
11/13/2018 10:56 9 18.4 9,481
11/13/2018 10:56 X98 18.4 77
11/13/2018 10:56 agency case identifier 18.4 1
11/13/2018 10:56 2996 18.4 2
11/13/2018 10:56 agency case identifier 18.4 1
11/13/2018 10:56 2987 18.4 2
11/13/2018 10:56 Liability Id 18.4 5
11/13/2018 10:56 90 18.4 1,066
11/13/2018 10:56 agency case identifier 18.4 1
11/13/2018 10:56 2978 18.4 1
11/13/2018 10:56 2825 18.4 2
11/13/2018 10:56 2695 18.4 2
11/13/2018 10:56 agency case identifier 18.4 1
11/13/2018 10:56 2605 18.4 2
11/13/2018 10:56 2576 18.4 1
11/13/2018 10:55 255 18.4 58
11/13/2018 10:55 714 18.4 22
11/13/2018 10:55 2401 18.4 2
11/13/2018 10:55 2371 18.4 2
11/13/2018 10:55 2366 18.4 2
11/13/2018 10:55 1417 18.4 4
11/13/2018 10:55 2362 18.4 2
11/13/2018 10:55 2355 18.4 2
11/13/2018 10:55 2329 18.4 2
11/13/2018 10:55 compliancereview 18.4 24
11/13/2018 10:55 NEWHUD.X1151 18.4 1
11/13/2018 10:55 agency case identifier 18.4 1
11/13/2018 10:55 2301 18.4 2
11/13/2018 10:55 2300 18.4 2
11/13/2018 10:54 2297 18.4 13
11/13/2018 10:54 2106 18.4 35
11/13/2018 10:54 218 18.4 160
11/13/2018 10:54 buy 18.4 3,406
11/13/2018 10:54 2626 18.4 2
11/13/2018 10:54 214 18.4 116
11/13/2018 10:54 2026 18.4 2
11/13/2018 10:54 1996 18.4 2
11/13/2018 10:54 1969 18.4 2
11/13/2018 10:54 cb2 18.4 26
11/13/2018 10:54 193 18.4 54
11/13/2018 10:54 freddie field 18.4 11
11/13/2018 10:54 1901 18.4 2
11/13/2018 10:54 187 18.4 68
11/13/2018 10:54 1847 18.4 2
11/13/2018 10:53 1825 18.4 2
11/13/2018 10:53 buyside 18.4 156
11/13/2018 10:53 mcaw 18.4 63
11/13/2018 10:53 1822 18.4 1
11/13/2018 10:53 1792 18.4 2
11/13/2018 10:53 1768 18.4 2
11/13/2018 10:53 1724 18.4 2
11/13/2018 10:53 1718 18.4 2
11/13/2018 10:53 165 18.4 56
11/13/2018 10:53 164 18.4 70
11/13/2018 10:53 1550 18.4 4
11/13/2018 10:53 fv.x45 18.4 1
11/13/2018 10:53 155 18.4 62
11/13/2018 10:53 1540 18.4 4
11/13/2018 10:52 1527 18.4 4
11/13/2018 10:52 2288 18.4 13
11/13/2018 10:52 1521 18.4 4
11/13/2018 10:52 BROKER COMPENSATION 18.4 57
11/13/2018 10:52 1487 18.4 3
11/13/2018 10:52 1481 18.4 4
11/13/2018 10:52 144 18.4 75
11/13/2018 10:52 1393 18.4 2
11/13/2018 10:52 buil 18.4 36
11/13/2018 10:52 properties 18.4 1
11/13/2018 10:52 DU 10 18.4 46
11/13/2018 10:52 1335 18.4 3
11/13/2018 10:52 Fee Details - Line 801c 18.4 28
11/13/2018 10:52 HAZARD 18.4 88
11/13/2018 10:51 1003 18.4 74
11/13/2018 10:51 1325 18.4 4
11/13/2018 10:51 1205 18.4 48
11/13/2018 10:51 1204 18.4 48
11/13/2018 10:51 1199 18.4 5
11/13/2018 10:51 1176 18.4 4
11/13/2018 10:51 1172 18.4 20
11/13/2018 10:51 document.datereceived 18.4 1
11/13/2018 10:51 1116 18.4 49
11/13/2018 10:50 Ad 18.4 11,472
11/13/2018 10:50 1113 18.4 57
11/13/2018 10:50 1107 18.4 11
11/13/2018 10:50 coborrower type 18.4 7
11/13/2018 10:50 mortgagee clause 18.4 1
11/13/2018 10:50 1095 18.4 4
11/13/2018 10:50 1091 18.4 3
11/13/2018 10:50 Fees Tax 18.4 56
11/13/2018 10:50 attached 18.4 11
11/13/2018 10:50 108 18.4 281
11/13/2018 10:50 proposed mtg ins 18.4 1
11/13/2018 10:50 1069 18.4 4
11/13/2018 10:50 MORNET.X27 18.4 1
11/13/2018 10:50 1063 18.4 6
11/13/2018 10:50 1310 18.4 52
11/13/2018 10:50 1060 18.4 5
11/13/2018 10:50 mavent 18.4 18
11/13/2018 10:50 1043 18.4 5
11/13/2018 10:50 originator 18.4 16
11/13/2018 10:50 104 18.4 191
11/13/2018 10:49 103 18.4 154
11/13/2018 10:49 ULDD.FNM.PRO 18.4 1
11/13/2018 10:49 1003 signature 18.4 1
11/13/2018 10:49 09 18.4 934
11/13/2018 10:49 0424 18.4 1
11/13/2018 10:49 AGENT 18.4 137
11/13/2018 10:49 0204 18.4 2
11/13/2018 10:49 $ 18.4 36
11/13/2018 10:49 Loan 18.4 1,831
11/13/2018 10:49 1050 18.4 5
11/13/2018 10:48 newhud.x75 18.4 11
11/13/2018 10:48 deposit 18.4 64
11/13/2018 10:48 Shipped date 18.4 1
11/13/2018 10:48 tql 18.4 125
11/13/2018 10:48 157 18.4 59
11/13/2018 10:48 escrow balance 18.4 4
11/13/2018 10:48 years 18.4 58
11/13/2018 10:48 M 18.4 21,621
11/13/2018 10:47 authorization 18.4 14
11/13/2018 10:47 1246 18.4 3
11/13/2018 10:47 1639 18.4 3
11/13/2018 10:46 business 18.4 176
11/13/2018 10:46 agency 18.4 72
11/13/2018 10:46 ULDD.X7 18.4 10
11/13/2018 10:46 117 18.4 102
11/13/2018 10:46 wire transfer fee 18.4 12
11/13/2018 10:45 ULDD.FNM.ARMIndexType 18.4 1
11/13/2018 10:45 Actual 18.4 64
11/13/2018 10:45 LE 18.4 5,984
11/13/2018 10:45 index 18.4 40
11/13/2018 10:45 compon 18.4 108
11/13/2018 10:45 financedindicator 18.4 79
11/13/2018 10:45 4005 18.4 3
11/13/2018 10:45 (Prev 18.4 6,974
11/13/2018 10:45 hud48 18.4 1
11/13/2018 10:45 ass 18.4 305
11/13/2018 10:44 VA service 18.4 20
11/13/2018 10:44 add reg 18.4 6
11/13/2018 10:44 1603 18.4 3
11/13/2018 10:44 set up 18.4 19
11/13/2018 10:44 closing. 18.4 756
11/13/2018 10:44 SELLER 18.4 1,976
11/13/2018 10:44 Mrtg 18.4 8
11/13/2018 10:44 LE DAT 18.4 341
11/13/2018 10:44 DEN 18.4 3,240
11/13/2018 10:43 LOCKRATE.3 18.4 365
11/13/2018 10:43 756 18.4 30
11/13/2018 10:43 progr 18.4 117
11/13/2018 10:42 originator 18.4 16
11/13/2018 10:42 384 18.4 111
11/13/2018 10:42 0 18.4 13,313
11/13/2018 10:42 lock state 18.4 80
11/13/2018 10:42 hmda.x39 18.4 1
11/13/2018 10:42 Us 18.4 14,289
11/13/2018 10:41 lat 18.4 502
11/13/2018 10:41 37 18.4 1,945
11/13/2018 10:41 loan info buydown rate 18.4 6
11/13/2018 10:40 QM.X103 18.4 1
11/13/2018 10:40 serial 18.4 1
11/13/2018 10:40 compensation 18.4 167
11/13/2018 10:40 541 18.4 14
11/13/2018 10:40 memb 18.4 15
11/13/2018 10:39 int 18.4 1,203
11/13/2018 10:39 800 18.4 365
11/13/2018 10:39 VASUMM.X22 18.4 1
11/13/2018 10:39 change reason 18.4 10
11/13/2018 10:38 3186 18.4 2
11/13/2018 10:38 qm.x23 18.4 11
11/13/2018 10:38 credit score for decision making 18.4 14
11/13/2018 10:37 borr cert other RE 18.4 6
11/13/2018 10:37 Affiliate 18.4 46
11/13/2018 10:37 custom4 18.4 11
11/13/2018 10:37 oth 18.4 1,213
11/13/2018 10:37 homestead 18.4 1
11/13/2018 10:36 pe 18.4 2,969
11/13/2018 10:36 19 18.4 1,349
11/13/2018 10:36 lock reques 18.4 8,041
11/13/2018 10:36 Endor 18.4 117
11/13/2018 10:36 sectio 18.4 824
11/13/2018 10:34 425 18.4 111
11/13/2018 10:33 1106 18.4 5
11/13/2018 10:33 1711 18.4 3
11/13/2018 10:33 hud1es 18.4 95
11/13/2018 10:33 CD5.X7 18.4 1
11/13/2018 10:32 Escrow Indicator 18.4 12
11/13/2018 10:31 4073 18.4 2
11/13/2018 10:31 check 18.4 403
11/13/2018 10:31 underwriter 18.4 47
11/13/2018 10:31 RD AUS 18.4 13
11/13/2018 10:30 HMDA.X15 18.4 2
11/13/2018 10:30 Tota 18.4 1,132
11/13/2018 10:29 condition 18.4 190
11/13/2018 10:29 loan term 18.4 66
11/13/2018 10:29 loan info section o 18.4 1
11/13/2018 10:29 EDISCLOSEDTRK.DISCLOSUREMETHOD 18.4 1
11/13/2018 10:29 mil 18.4 126
11/13/2018 10:28 approval 18.4 61
11/13/2018 10:28 l174 18.4 1
11/13/2018 10:28 Business Conta 18.4 121
11/13/2018 10:27 NEWHUD.X351 18.4 2
11/13/2018 10:26 Cont 18.4 1,261
11/13/2018 10:26 LoanTe 18.4 9
11/13/2018 10:26 1072 18.4 5
11/13/2018 10:26 2046 18.4 1
11/13/2018 10:26 1072 18.4 5
11/13/2018 10:25 seller name 18.4 17
11/13/2018 10:25 LTV 18.4 41
11/13/2018 10:24 appraisal fee 18.4 24
11/13/2018 10:23 bureau 18.4 35
11/13/2018 10:23 HUD-1 18.4 95
11/13/2018 10:22 1994 18.4 2
11/13/2018 10:22 loan 18.4 992
11/13/2018 10:22 Loan Officer Name 18.4 5
11/13/2018 10:22 392 18.4 56
11/13/2018 10:22 HMDA x13 18.4 1
11/13/2018 10:21 MORNET.X74 18.4 1
11/13/2018 10:21 LOG.MS.LASTCOMPLETED 18.4 1
11/13/2018 10:21 Next Expected Milestone 18.4 1
11/13/2018 10:21 749 18.4 32
11/13/2018 10:21 home counseling 18.4 45
11/13/2018 10:20 DISCLOSURE.X7 18.4 110
11/13/2018 10:20 hmda.x93 18.4 1
11/13/2018 10:19 dis 18.4 3,201
11/13/2018 10:19 ms, 18.4 1
11/13/2018 10:19 purchase advice date 18.4 9
11/13/2018 10:19 downpayment 18.4 3
11/13/2018 10:18 down payment 18.4 34
11/13/2018 10:18 DU Case 18.4 4
11/13/2018 10:18 NEWHUD.X251 18.4 1
11/13/2018 10:17 homestead 18.4 1
11/13/2018 10:16 3984 18.4 2
11/13/2018 10:16 section 18.4 824
11/13/2018 10:16 loan date 18.4 86
11/13/2018 10:16 newhud 18.4 5,705
11/13/2018 10:16 Refi propert 18.4 1
11/13/2018 10:15 124 18.4 74
11/13/2018 10:15 In 18.4 16,708
11/13/2018 10:14 denial.x91 18.4 1
11/13/2018 10:14 1811 18.4 13
11/13/2018 10:14 Appraisal 18.4 83
11/13/2018 10:13 plan 18.4 123
11/13/2018 10:13 attachment 18.4 2
11/13/2018 10:13 rate lo 18.4 13,712
11/13/2018 10:12 le1.x33 18.4 1
11/13/2018 10:12 frequency 18.4 11
11/13/2018 10:12 type 18.4 908
11/13/2018 10:12 Trans Details 18.4 421
11/13/2018 10:12 x1299 18.4 2
11/13/2018 10:12 with 18.4 89
11/13/2018 10:11 930 18.4 21
11/13/2018 10:11 9 18.4 8,307
11/13/2018 10:11 IRR 18.4 2
11/13/2018 10:11 011 18.4 61
11/13/2018 10:11 mornet.x40 18.4 1
11/13/2018 10:10 refinance type 18.4 6
11/13/2018 10:10 3624 18.4 2
11/13/2018 10:10 benefic 18.4 33
11/13/2018 10:10 60 days 18.4 4
11/13/2018 10:10 ren 18.4 444
11/13/2018 10:09 abs 18.4 14
11/13/2018 10:09 Approval Date 18.4 32
11/13/2018 10:09 newhud.x1227 18.4 1
11/13/2018 10:09 est closi 18.4 293
11/13/2018 10:08 uldd.x71 18.4 1
11/13/2018 10:08 did 18.4 147
11/13/2018 10:08 investor name 18.4 73
11/13/2018 10:08 HOEP 18.4 4
11/13/2018 10:08 buyers agent email 18.4 1
11/13/2018 10:08 denial.x67 18.4 1
11/13/2018 10:08 3197 18.4 2
11/13/2018 10:07 FR0107 18.4 1
11/13/2018 10:07 fixed 18.4 20
11/13/2018 10:07 1134 18.4 4
11/13/2018 10:07 eConsent status 18.4 13
11/13/2018 10:06 intent to proceed 18.4 7
11/13/2018 10:05 1066 18.4 5
11/13/2018 10:05 ULDD.X166 18.4 1
11/13/2018 10:05 payout 18.4 48
11/13/2018 10:04 DEPENDEN 18.4 12
11/13/2018 10:04 sECONDARY 18.4 4
11/13/2018 10:04 2367 18.4 2
11/13/2018 10:03 Mavent 18.4 18
11/13/2018 10:03 LOANAMT2 18.4 1
11/13/2018 10:03 34 18.4 1,461
11/13/2018 10:02 FE0207 18.4 1
11/13/2018 10:02 828 18.4 66
11/13/2018 10:01 s32disc.x48 18.4 1
11/13/2018 10:01 Termination 18.4 12
11/13/2018 10:01 NEWHUD.X960 18.4 1
11/13/2018 10:01 Investor Cas 18.4 1
11/13/2018 10:01 Biz 18.4 25
11/13/2018 10:01 Approval Date 18.4 32
11/13/2018 10:01 Appraisal Review 18.4 5
11/13/2018 10:00 Underwriting 18.4 205
11/13/2018 10:00 1181 18.4 3
11/13/2018 10:00 spon 18.4 203
11/13/2018 10:00 VEND.X730 18.4 1
11/13/2018 10:00 UWC.OPENEX 18.4 1
11/13/2018 10:00 ULDD.X178 18.4 1
11/13/2018 10:00 Lien T 18.4 111
11/13/2018 10:00 LOG.MS.CURRENTMILESTONE 18.4 1
11/13/2018 10:00 Interest c 18.4 224
11/13/2018 10:00 Employer Addr 18.4 4
11/13/2018 10:00 CREDIT DATE 18.4 21
11/13/2018 10:00 1296 18.4 3
11/13/2018 09:59 merged 18.4 2
11/13/2018 09:59 mari 18.4 3
11/13/2018 09:59 file start 18.4 3
11/13/2018 09:59 deposit account 18.4 18
11/13/2018 09:59 co name 18.4 612
11/13/2018 09:59 1st Amort 18.4 1
11/13/2018 09:59 LE2.X31 18.4 1
11/13/2018 09:59 preli 18.4 49
11/13/2018 09:59 amortization term 18.4 1
11/13/2018 09:59 3156 18.4 2
11/13/2018 09:58 hmda.x24 18.4 1
11/13/2018 09:58 hmda.x30 18.4 1
11/13/2018 09:58 denial.x80 18.4 1
11/13/2018 09:58 denial.x66 18.4 1
11/13/2018 09:58 Section of the Act 18.4 2
11/13/2018 09:58 INTEREST ONLY 18.4 27
11/13/2018 09:58 2166 18.4 13
11/13/2018 09:58 156 18.4 61
11/13/2018 09:58 PYMT Date 18.4 42
11/13/2018 09:58 vend.x529 18.4 1
11/13/2018 09:58 vend.x389 18.4 1
11/13/2018 09:58 ispay 18.4 263
11/13/2018 09:58 dow 18.4 118
11/13/2018 09:58 HMDA.x40 18.4 1
11/13/2018 09:57 mc 18.4 65
11/13/2018 09:57 first time h 18.4 27
11/13/2018 09:57 Property Valuation 18.4 6
11/13/2018 09:57 MI Fee 18.4 109
11/13/2018 09:57 DU CASE ID 18.4 4
11/13/2018 09:57 229 18.4 139
11/13/2018 09:57 resu 18.4 33
11/13/2018 09:57 princip 18.4 126
11/13/2018 09:57 le1.x87 18.4 1
11/13/2018 09:57 Service 18.4 546
11/13/2018 09:57 Lender Fees 18.4 43
11/13/2018 09:57 surv 18.4 45
11/13/2018 09:57 requeste 18.4 121
11/13/2018 09:56 Subject Property Legal 18.4 11
11/13/2018 09:56 AUS.X16 18.4 22
11/13/2018 09:55 4170 18.4 2
11/13/2018 09:55 CD due date 18.4 1
11/13/2018 09:55 attorney 18.4 91
11/13/2018 09:55 CD due date 18.4 1
11/13/2018 09:55 File Cont 18.4 1,004
11/13/2018 09:55 976 18.4 23
11/13/2018 09:55 697 18.4 21
11/13/2018 09:55 688 18.4 34
11/13/2018 09:54 4174 18.4 2
11/13/2018 09:54 34 18.4 1,465
11/13/2018 09:54 325 18.4 86
11/13/2018 09:54 3 18.4 15,212
11/13/2018 09:54 2645 18.4 2
11/13/2018 09:54 1010 18.4 46
11/13/2018 09:54 2625 18.4 1
11/13/2018 09:54 4005 18.4 3
11/13/2018 09:54 2625 18.4 1
11/13/2018 09:54 ARM.IdxLkbckPr 18.4 1
11/13/2018 09:54 257 18.4 58
11/13/2018 09:54 check fees 18.4 115
11/13/2018 09:54 257 18.4 58
11/13/2018 09:54 web 18.4 42
11/13/2018 09:54 247 18.4 159
11/13/2018 09:54 3332 18.4 2
11/13/2018 09:54 247 18.4 159
11/13/2018 09:54 24 18.4 1,836
11/13/2018 09:54 4159 18.4 1
11/13/2018 09:54 2305 18.4 2
11/13/2018 09:53 limit 18.4 51
11/13/2018 09:53 investor delivery d 18.4 13
11/13/2018 09:53 dt 18.4 173
11/13/2018 09:53 348 18.4 162
11/13/2018 09:53 dt 18.4 173
11/13/2018 09:53 closing sta 18.4 160
11/13/2018 09:53 disclosure.x5 18.4 95
11/13/2018 09:53 disclosu 18.4 2,355
11/13/2018 09:53 social 18.4 18
11/13/2018 09:53 conv 18.4 9
11/13/2018 09:53 collatera 18.4 13
11/13/2018 09:53 Payoff 18.4 70
11/13/2018 09:53 HMDA.X15 18.4 2
11/13/2018 09:53 DISCLOSURE.x 18.4 1,137
11/13/2018 09:53 dues 18.4 1
11/13/2018 09:53 DISCL 18.4 2,667
11/13/2018 09:52 CID 18.4 1
11/13/2018 09:52 2962 18.4 13
11/13/2018 09:52 253 18.4 52
11/13/2018 09:52 2149 18.4 13
11/13/2018 09:52 land trust 18.4 1
11/13/2018 09:52 disbu 18.4 58
11/13/2018 09:52 denial. 18.4 72
11/13/2018 09:52 403 18.4 57
11/13/2018 09:52 1016 18.4 6
11/13/2018 09:51 NTB.x22 18.4 1
11/13/2018 09:51 ULDD.X94 18.4 1
11/13/2018 09:51 DL code 18.4 2
11/13/2018 09:51 preapprovals 18.4 1
11/13/2018 09:51 veteran 18.4 51
11/13/2018 09:51 37 18.4 1,785
11/13/2018 09:51 NEWHUD.x1191 18.4 1
11/13/2018 09:50 984 18.4 12
11/13/2018 09:50 CAIVRS 18.4 4
11/13/2018 09:49 disbursement date 18.4 8
11/13/2018 09:49 routi 18.4 12
11/13/2018 09:49 VA funding fee 18.4 6
11/13/2018 09:48 CP 18.4 259
11/13/2018 09:47 Sub 18.4 554
11/13/2018 09:47 LTV 18.4 84
11/13/2018 09:47 LOC 18.4 13,876
11/13/2018 09:47 gfe initial 18.4 10
11/13/2018 09:46 1003 18.4 74
11/13/2018 09:46 position 18.4 34
11/13/2018 09:46 L134 18.4 1
11/13/2018 09:46 borrower 18.4 319
11/13/2018 09:45 4002 18.4 2
11/13/2018 09:45 originate 18.4 6
11/13/2018 09:45 3142 18.4 2
11/13/2018 09:45 deposit 18.4 64
11/13/2018 09:44 1204 18.4 48
11/13/2018 09:44 USDA.X17 18.4 9
11/13/2018 09:44 sys.x116 18.4 1
11/13/2018 09:43 branch manager 18.4 3
11/13/2018 09:43 MIN Number 18.4 1
11/13/2018 09:42 1086 18.4 5
11/13/2018 09:42 FR0124 18.4 1
11/13/2018 09:42 ability-to-repay 18.4 15
11/13/2018 09:42 benefit 18.4 84
11/13/2018 09:42 fo 18.4 1,662
11/13/2018 09:41 orgid 18.4 1
11/13/2018 09:41 reference number 18.4 12
11/13/2018 09:41 uldd.x142 18.4 1
11/13/2018 09:40 ORGID 18.4 1
11/13/2018 09:40 19 18.4 1,349
11/13/2018 09:39 failure 18.4 1
11/13/2018 09:39 borrower pair 18.4 38
11/13/2018 09:39 HOC 18.4 23
11/13/2018 09:39 unpaid 18.4 329
11/13/2018 09:39 FM 18.4 216
11/13/2018 09:39 company name 18.4 25
11/13/2018 09:38 Borr Empl 18.4 147
11/13/2018 09:38 rate change date 18.4 1
11/13/2018 09:38 servicer id 18.4 54
11/13/2018 09:38 Home 18.4 202
11/13/2018 09:38 mornet.x67 18.4 12
11/13/2018 09:37 Home 18.4 200
11/13/2018 09:37 BALANCE 18.4 83
11/13/2018 09:37 survey 18.4 45
11/13/2018 09:36 mornet.x67 18.4 12
11/13/2018 09:36 received 18.4 95
11/13/2018 09:36 sex 18.4 5
11/13/2018 09:36 Proceed 18.4 12
11/13/2018 09:36 case file 18.4 6
11/13/2018 09:35 out 18.4 153
11/13/2018 09:34 NTB.X7 18.4 1
11/13/2018 09:33 m 18.4 21,621
11/13/2018 09:33 plancode.desc 18.4 1
11/13/2018 09:33 GFE Rate Lock 18.4 5
11/13/2018 09:33 dura 18.4 7
11/13/2018 09:31 230 18.4 50
11/13/2018 09:31 DISCLOSURE.X626 18.4 1
11/13/2018 09:30 pr 18.4 10,195
11/13/2018 09:28 MI coverage 18.4 1
11/13/2018 09:28 adjustments 18.4 347
11/13/2018 09:28 signi 18.4 27
11/13/2018 09:28 Lock ( 18.4 10,447
11/13/2018 09:28 Current loan status 18.4 2
11/13/2018 09:27 line 1111 18.4 51
11/13/2018 09:27 948 18.4 21
11/13/2018 09:27 automobi 18.4 7
11/13/2018 09:27 government refinance type 18.4 1
11/13/2018 09:27 1615 18.4 3
11/13/2018 09:27 x1161 18.4 3
11/13/2018 09:27 Purchase Price 18.4 38
11/13/2018 09:27 rate lock buy side total buy price 18.4 24
11/13/2018 09:26 real estate 18.4 35
11/13/2018 09:26 conversion 18.4 7
11/13/2018 09:26 existing 18.4 92
11/13/2018 09:26 DD0008 18.4 1
11/13/2018 09:26 SYS. 18.4 551
11/13/2018 09:26 Natural 18.4 5
11/13/2018 09:25 807 18.4 71
11/13/2018 09:25 cd4.x43 18.4 1
11/13/2018 09:25 cltv 18.4 38
11/13/2018 09:25 4254 18.4 13
11/13/2018 09:25 VEND.X171 18.4 1
11/13/2018 09:24 borrower contact 18.4 1
11/13/2018 09:24 FM 18.4 216
11/13/2018 09:23 borr dob 18.4 2
11/13/2018 09:23 lo lock 18.4 13,781
11/13/2018 09:23 spe 18.4 132
11/13/2018 09:23 anti-steering 18.4 196
11/13/2018 09:23 product description 18.4 4
11/13/2018 09:23 dividend 18.4 20
11/13/2018 09:23 co-borrowe 18.4 60
11/13/2018 09:23 all 18.4 270
11/13/2018 09:23 se 18.4 13,978
11/13/2018 09:22 b 18.4 19,482
11/13/2018 09:22 584 18.4 12
11/13/2018 09:22 126 18.4 75
11/13/2018 09:22 only 18.4 37
11/13/2018 09:22 hmda.x10 18.4 10
11/13/2018 09:22 DELIVERYMETHOD 18.4 2
11/13/2018 09:22 FL0014 18.4 1
11/13/2018 09:22 NEWHUD.X1149 18.4 1
11/13/2018 09:22 DISCLOSURE.X454 18.4 1
11/13/2018 09:22 decl 18.4 33
11/13/2018 09:22 FE0107 18.4 1
11/13/2018 09:22 HMDA.X70 18.4 1
11/13/2018 09:22 952 18.4 21
11/13/2018 09:22 3313 18.4 2
11/13/2018 09:22 SYS.X268 18.4 1
11/13/2018 09:22 385 18.4 57
11/13/2018 09:22 CD 18.4 1,309
11/13/2018 09:22 optio 18.4 266
11/13/2018 09:22 CD3.X8 18.4 13
11/13/2018 09:22 co-borrower la 18.4 1
11/13/2018 09:21 VAELIG.X22 18.4 1
11/13/2018 09:21 cushion 18.4 10
11/13/2018 09:21 VEND.x503 18.4 1
11/13/2018 09:21 wire instruction 18.4 1
11/13/2018 09:20 originated 18.4 5
11/13/2018 09:20 Model 18.4 10
11/13/2018 09:20 feature 18.4 18
11/13/2018 09:20 1066 18.4 5
11/13/2018 09:19 LE Sent 18.4 36
11/13/2018 09:19 Property Status 18.4 26
11/13/2018 09:18 1205 18.4 48
11/13/2018 09:18 Document.Status 18.4 1
11/13/2018 09:18 tole 18.4 171
11/13/2018 09:18 FR01 18.4 9
11/13/2018 09:18 teammember 18.4 12
11/13/2018 09:18 PurchaseDate 18.4 2
11/13/2018 09:18 FE0102 18.4 1
11/13/2018 09:18 Percent G 18.4 214
11/13/2018 09:17 Loan Officer 18.4 161
11/13/2018 09:17 newhud.x12 18.4 116
11/13/2018 09:16 HTR 18.4 5
11/13/2018 09:16 Corp 18.4 77
11/13/2018 09:16 x210 18.4 21
11/13/2018 09:16 veteran status 18.4 6
11/13/2018 09:16 53 18.4 469
11/13/2018 09:16 disclo 18.4 2,770
11/13/2018 09:15 amortization s 18.4 24
11/13/2018 09:15 VEND.X178 18.4 1
11/13/2018 09:15 Seller Paid MI Premium 18.4 12
11/13/2018 09:15 Purchase Amount 18.4 65
11/13/2018 09:15 capi 18.4 85
11/13/2018 09:15 LoaN 18.4 1,906
11/13/2018 09:15 2152 18.4 12
11/13/2018 09:15 SSA 89 18.4 12
11/13/2018 09:15 3578 18.4 2
11/13/2018 09:14 order 18.4 126
11/13/2018 09:14 partner 18.4 17
11/13/2018 09:14 3972 18.4 2
11/13/2018 09:13 3879 18.4 2
11/13/2018 09:13 notices.x97 18.4 1
11/13/2018 09:13 amortization s 18.4 24
11/13/2018 09:13 Fees tax 18.4 56
11/13/2018 09:13 Credit Score disclosure 18.4 25
11/13/2018 09:13 minimum payment 18.4 41
11/13/2018 09:12 descrip 18.4 407
11/13/2018 09:12 38 18.4 1,418
11/13/2018 09:12 recent 18.4 5,709
11/13/2018 09:11 10 18.4 4,109
11/13/2018 09:11 Appraisal 18.4 86
11/13/2018 09:11 3142 18.4 1
11/13/2018 09:11 3 18.4 15,148
11/13/2018 09:11 MI cover 18.4 1
11/13/2018 09:11 2592 18.4 12
11/13/2018 09:11 last due 18.4 1
11/13/2018 09:11 Real estate owned 18.4 1
11/13/2018 09:11 452 18.4 47
11/13/2018 09:11 1003 18.4 76
11/13/2018 09:11 residence 18.4 68
11/13/2018 09:11 L134 18.4 1
11/13/2018 09:10 MER 18.4 116
11/13/2018 09:10 co-bo 18.4 582
11/13/2018 09:09 pool issue 18.4 3
11/13/2018 09:09 settlement 18.4 125
11/13/2018 09:08 maturity 18.4 9
11/13/2018 09:08 1853 18.4 2
11/13/2018 09:08 agr 18.4 47
11/13/2018 09:08 14 18.4 1,640
11/13/2018 09:07 Package 18.4 3
11/13/2018 09:07 2230 18.4 13
11/13/2018 09:07 2278 18.4 12
11/13/2018 09:06 Approval Date 18.4 32
11/13/2018 09:06 temporary 18.4 3
11/13/2018 09:06 lender nmls 18.4 8
11/13/2018 09:06 Total closing cost 18.4 34
11/13/2018 09:06 Conditional Approv 18.4 1
11/13/2018 09:06 2376 18.4 1
11/13/2018 09:06 1955 18.4 1
11/13/2018 09:06 1763 18.4 2
11/13/2018 09:06 calculated 18.4 8
11/13/2018 09:05 va 18.4 962
11/13/2018 09:05 678 18.4 34
11/13/2018 09:05 disclosure.x952 18.4 1
11/13/2018 09:05 3 18.4 11,000
11/13/2018 09:05 Utility 18.4 2
11/13/2018 09:05 casasrn.x145 18.4 1
11/13/2018 09:05 property taxes 18.4 7
11/13/2018 09:05 irs 18.4 432
11/13/2018 09:05 applic 18.4 89
11/13/2018 09:05 1300 18.4 96
11/13/2018 09:05 city county tax 18.4 2
11/13/2018 09:05 EEM.X71 18.4 1
11/13/2018 09:05 3887 18.4 2
11/13/2018 09:05 residence 18.4 68
11/13/2018 09:05 L134 18.4 1
11/13/2018 09:05 escrow balanc 18.4 4
11/13/2018 09:04 GSE Vendor Provider Data 18.4 62
11/13/2018 09:04 USDA - Have You Ever O 18.4 4
11/13/2018 09:04 summar 18.4 81
11/13/2018 09:04 Fee Details - Line 804 18.4 28
11/13/2018 09:04 CD2.XSTA 18.4 1
11/13/2018 09:04 Origin Type 18.4 1
11/13/2018 09:04 Attorney 18.4 91
11/13/2018 09:04 671 18.4 34
11/13/2018 09:04 household 18.4 8
11/13/2018 09:04 wid 18.4 5
11/13/2018 09:03 newhud.x960 18.4 1
11/13/2018 09:03 delivery 18.4 90
11/13/2018 09:03 m 18.4 21,557
11/13/2018 09:03 e 18.4 31,117
11/13/2018 09:03 Subject indicator 18.4 6
11/13/2018 09:03 vesting 18.4 58
11/13/2018 09:02 recent 18.4 5,709
11/13/2018 09:02 416 18.4 54
11/13/2018 09:02 2222 18.4 13
11/13/2018 09:02 rate adju 18.4 9,568
11/13/2018 09:01 DIS 18.4 3,048
11/13/2018 09:01 intent to proceed 18.4 7
11/13/2018 09:01 closing type 18.4 229
11/13/2018 09:01 VEND.X445 18.4 1
11/13/2018 09:01 notary 18.4 67
11/13/2018 09:01 closing type 18.4 229
11/13/2018 09:01 reo id 18.4 2
11/13/2018 09:01 starting 18.4 52
11/13/2018 09:01 54 18.4 442
11/13/2018 09:01 DISCLOSURE.X9 18.4 111
11/13/2018 09:01 3297 18.4 2
11/13/2018 09:01 difference 18.4 19
11/13/2018 09:01 1200 18.4 63
11/13/2018 09:01 3042 18.4 2
11/13/2018 09:01 proposed piti 18.4 2
11/13/2018 09:01 chec 18.4 402
11/13/2018 09:01 refundable 18.4 31
11/13/2018 09:01 household 18.4 8
11/13/2018 09:01 maturity 18.4 9
11/13/2018 09:01 1853 18.4 2
11/13/2018 09:01 verbiage 18.4 3
11/13/2018 09:01 household 18.4 8
11/13/2018 09:01 agr 18.4 47
11/13/2018 09:01 household 18.4 8
11/13/2018 09:01 shipping 18.4 33
11/13/2018 09:00 household 18.4 8
11/13/2018 09:00 1063 18.4 6
11/13/2018 08:59 CASASRN.X14 18.4 7
11/13/2018 08:59 GUID 18.4 66
11/13/2018 08:59 Dis 18.4 3,054
11/13/2018 08:59 NewHud.x1153 18.4 1
11/13/2018 08:59 vend.x167 18.4 1
11/13/2018 08:59 801i 18.4 42
11/13/2018 08:59 lender name 18.4 37
11/13/2018 08:59 HUD 18.4 6,344
11/13/2018 08:58 property disposition 18.4 1
11/13/2018 08:58 Down payment 18.4 30
11/13/2018 08:58 Documen 18.4 488
11/13/2018 08:58 LoanteamMember.UserID 18.4 1
11/13/2018 08:58 interest 18.4 289
11/13/2018 08:58 NEWHUD2.X1290 18.4 1
11/13/2018 08:57 taken 18.4 6
11/13/2018 08:57 4356 18.4 12
11/13/2018 08:57 648 18.4 23
11/13/2018 08:57 155 18.4 61
11/13/2018 08:56 appe 18.4 214
11/13/2018 08:56 Unit # 18.4 26
11/13/2018 08:56 CD4.X3 18.4 10
11/13/2018 08:56 calculated 18.4 5
11/13/2018 08:56 owned va 18.4 6
11/13/2018 08:56 revolving 18.4 1
11/13/2018 08:56 fannie 18.4 282
11/13/2018 08:56 loan template 18.4 2
11/13/2018 08:56 cancellation 18.4 9
11/13/2018 08:55 person 18.4 44
11/13/2018 08:55 4063 18.4 2
11/13/2018 08:55 1603 18.4 3
11/13/2018 08:55 household 18.4 8
11/13/2018 08:55 338 18.4 146
11/13/2018 08:55 last finished milesto 18.4 1
11/13/2018 08:55 deductions 18.4 13
11/13/2018 08:54 refi 18.4 100
11/13/2018 08:54 closing costs 18.4 45
11/13/2018 08:54 USDA.X3 18.4 11
11/13/2018 08:54 Closing.Inv 18.4 176
11/13/2018 08:54 DENIAL.X81 18.4 1
11/13/2018 08:54 242 18.4 173
11/13/2018 08:54 Amorti 18.4 34
11/13/2018 08:53 VEND.X152 18.4 1
11/13/2018 08:53 Submitted date 18.4 5
11/13/2018 08:53 99 18.4 381
11/13/2018 08:53 irs4506 18.4 139
11/13/2018 08:53 2306 18.4 2
11/13/2018 08:53 MORNET.X40 18.4 1
11/13/2018 08:53 title company 18.4 3
11/13/2018 08:53 closing requ 18.4 45
11/13/2018 08:53 mobil 18.4 7
11/13/2018 08:53 1205 18.4 47
11/13/2018 08:52 ASSET ID 18.4 6
11/13/2018 08:52 closing cost financed 18.4 8
11/13/2018 08:52 conditions 18.4 91
11/13/2018 08:52 Lot # 18.4 1
11/13/2018 08:52 environment 18.4 2
11/13/2018 08:52 Identifier 18.4 32
11/13/2018 08:51 acct 18.4 40
11/13/2018 08:51 score 18.4 561
11/13/2018 08:51 buy 18.4 2,925
11/13/2018 08:51 qm 18.4 375
11/13/2018 08:51 reference 18.4 18
11/13/2018 08:51 notices 18.4 96
11/13/2018 08:51 faith 18.4 23
11/13/2018 08:51 Tax 18.4 299
11/13/2018 08:50 equifax 18.4 177
11/13/2018 08:50 1452 18.4 14
11/13/2018 08:50 Closing D 18.4 2,072
11/13/2018 08:50 dura 18.4 7
11/13/2018 08:50 Milestone 18.4 35
11/13/2018 08:49 CD3.X23 18.4 11
11/13/2018 08:49 Guarantee Fe 18.4 41
11/13/2018 08:49 servicing release 18.4 2
11/13/2018 08:49 674 18.4 33
11/13/2018 08:49 QM.x40 18.4 1
11/13/2018 08:49 pri 18.4 3,553
11/13/2018 08:49 newh 18.4 5,803
11/13/2018 08:48 hud-1 18.4 95
11/13/2018 08:48 CD3.X13 18.4 14
11/13/2018 08:48 parcel 18.4 1
11/13/2018 08:48 4175 18.4 2
11/13/2018 08:48 numbe 18.4 411
11/13/2018 08:48 CUSTO 18.4 200
11/13/2018 08:48 milest 18.4 34
11/13/2018 08:48 2301 18.4 2
11/13/2018 08:47 Stat 18.4 1,239
11/13/2018 08:47 loan team membe 18.4 12
11/13/2018 08:47 appli 18.4 220
11/13/2018 08:47 Entity 18.4 13
11/13/2018 08:47 uldd.x2 18.4 9
11/13/2018 08:47 refinanced by 18.4 1
11/13/2018 08:46 2313 18.4 2
11/13/2018 08:46 s32disc.x51 18.4 1
11/13/2018 08:46 FICO 18.4 223
11/13/2018 08:46 3983 18.4 2
11/13/2018 08:46 escrow 18.4 386
11/13/2018 08:46 3380 18.4 13
11/13/2018 08:46 sell 18.4 4,322
11/13/2018 08:46 bas 18.4 9,328
11/13/2018 08:46 2976 18.4 2
11/13/2018 08:46 D 18.4 30,763
11/13/2018 08:45 ms. 18.4 29
11/13/2018 08:45 subject property 18.4 337
11/13/2018 08:45 4 18.4 10,711
11/13/2018 08:45 1045 18.4 2
11/13/2018 08:45 1880 18.4 2
11/13/2018 08:45 design 18.4 8
11/13/2018 08:45 representativ 18.4 13
11/13/2018 08:45 317 18.4 89
11/13/2018 08:44 1070 18.4 5
11/13/2018 08:44 design 18.4 1
11/13/2018 08:44 capi 18.4 85
11/13/2018 08:44 s 18.4 30,030
11/13/2018 08:43 prior to 18.4 12
11/13/2018 08:43 lien position 18.4 15
11/13/2018 08:43 976 18.4 23
11/13/2018 08:43 self employed 18.4 173
11/13/2018 08:43 annua 18.4 76
11/13/2018 08:43 est closing 18.4 293
11/13/2018 08:43 CASASRN. 18.4 83
11/13/2018 08:43 813 18.4 89
11/13/2018 08:43 510 18.4 33
11/13/2018 08:42 817 18.4 88
11/13/2018 08:42 newhud.x225 18.4 1
11/13/2018 08:42 MORNET. 18.4 54
11/13/2018 08:42 ULDD.FRE.PROPERTYFORMTYPE 18.4 1
11/13/2018 08:41 Co-Borr Declarations E 18.4 15
11/13/2018 08:41 7 18.4 9,009
11/13/2018 08:41 403 18.4 57
11/13/2018 08:41 ULDD.FRE.PROPERTYFORMTYPE 18.4 1
11/13/2018 08:41 NAME 18.4 1,056
11/13/2018 08:41 FM0016 18.4 1
11/13/2018 08:41 behalf 18.4 63
11/13/2018 08:41 settlement 18.4 127
11/13/2018 08:41 3567 18.4 2
11/13/2018 08:41 25 18.4 1,081
11/13/2018 08:41 89 18.4 557
11/13/2018 08:41 fulf 18.4 49
11/13/2018 08:41 originato 18.4 17
11/13/2018 08:41 686 18.4 35
11/13/2018 08:41 LE2.X26 18.4 1
11/13/2018 08:41 print 18.4 72
11/13/2018 08:41 Na 18.4 3,506
11/13/2018 08:41 124 18.4 74
11/13/2018 08:41 Disclosure.x397 18.4 1
11/13/2018 08:41 2370 18.4 2
11/13/2018 08:41 capiap.x10 18.4 1
11/13/2018 08:41 hu 18.4 6,446
11/13/2018 08:41 string 18.4 2
11/13/2018 08:41 pres 18.4 71
11/13/2018 08:41 custom2 18.4 13
11/13/2018 08:41 cd4.x2 18.4 6
11/13/2018 08:41 be0009 18.4 2
11/13/2018 08:41 marketing 18.4 4
11/13/2018 08:41 894 18.4 19
11/13/2018 08:41 SYS.X385 18.4 1
11/13/2018 08:40 1876 18.4 2
11/13/2018 08:40 property valuation form 18.4 3
11/13/2018 08:40 apprais 18.4 135
11/13/2018 08:40 escrow waived 18.4 1
11/13/2018 08:40 1521 18.4 4
11/13/2018 08:40 mers org 18.4 3
11/13/2018 08:39 subject prope 18.4 340
11/13/2018 08:39 advanc 18.4 145
11/13/2018 08:39 hazard 18.4 88
11/13/2018 08:39 1603 18.4 3
11/13/2018 08:39 closing dat 18.4 213
11/13/2018 08:38 portion 18.4 65
11/13/2018 08:38 Homeowners 18.4 6
11/13/2018 08:38 both 18.4 3
11/13/2018 08:38 LE2.X31 18.4 1
11/13/2018 08:38 ssn 18.4 173
11/13/2018 08:38 1405 18.4 3
11/13/2018 08:38 line de 18.4 4,142
11/13/2018 08:37 guid 18.4 66
11/13/2018 08:37 SECTION OF ACT 18.4 3
11/13/2018 08:37 Bor 18.4 3,695
11/13/2018 08:37 b 18.4 17,055
11/13/2018 08:37 term2 18.4 1
11/13/2018 08:37 credit review 18.4 2
11/13/2018 08:36 NEWHUD2.X2842 18.4 1
11/13/2018 08:36 clear to close 18.4 2
11/13/2018 08:36 SYS.X25 18.4 10
11/13/2018 08:36 preapproval 18.4 1
11/13/2018 08:36 first 18.4 291
11/13/2018 08:35 cd 18.4 1,234
11/13/2018 08:35 first 18.4 291
11/13/2018 08:35 Trans 18.4 740
11/13/2018 08:35 Hispanic 18.4 8
11/13/2018 08:35 2301 18.4 2
11/13/2018 08:35 Hispanic 18.4 8
11/13/2018 08:35 lockrate.2287 18.4 1
11/13/2018 08:35 CAIVRS 18.4 4
11/13/2018 08:35 borrower last 18.4 47
11/13/2018 08:35 Change in Circumstance 18.4 5
11/13/2018 08:35 NEWH 18.4 5,705
11/13/2018 08:34 UCD.X5 18.4 1
11/13/2018 08:34 LOAN 18.4 1,843
11/13/2018 08:34 fe 18.4 7,537
11/13/2018 08:34 SRP 18.4 71
11/13/2018 08:34 4236 18.4 2
11/13/2018 08:34 fili 18.4 54
11/13/2018 08:34 Liability ID 18.4 6
11/13/2018 08:34 projected 18.4 143
11/13/2018 08:34 85 18.4 381
11/13/2018 08:33 2961 18.4 13
11/13/2018 08:33 3142 18.4 2
11/13/2018 08:33 .x97 18.4 71
11/13/2018 08:33 of es 18.4 672
11/13/2018 08:33 1107 18.4 9
11/13/2018 08:33 month remaining 18.4 8
11/13/2018 08:33 borr ge 18.4 355
11/13/2018 08:33 Manufactured 18.4 5
11/13/2018 08:33 First time Home buyer 18.4 26
11/13/2018 08:33 78% 18.4 1
11/13/2018 08:33 newhud2.x133 18.4 11
11/13/2018 08:33 borrower la 18.4 64
11/13/2018 08:33 4055 18.4 2
11/13/2018 08:33 delivered 18.4 25
11/13/2018 08:33 LE3.X2 18.4 7
11/13/2018 08:33 irs 18.4 423
11/13/2018 08:32 line 80 18.4 1,443
11/13/2018 08:32 Interest Per diem 18.4 1
11/13/2018 08:32 NEWHUD.X1083 18.4 1
11/13/2018 08:32 3042 18.4 2
232 of 34,519 Fields in Encompass 18.4 contain 'min'
Type Field ID Format Opts Description First Chng
Standard 109 STRING Insurance Borr MI Termination Date
Standard 118 STRING Insurance Calculation Borr MI Termination Date
Standard 1032 STRING VA Mineral Rights Reserved
Standard 1051 STRING Trans Details MERS MIN #
Standard 1117 DECIMAL_2 FHA MCAW Min Down Pymt
Standard 1483 DECIMAL_2 HELOC Minimum Payment
Standard 1484 STRING Borr Minimum FICO
Standard 1502 STRING Co-Borr Min FICO
Standard 1883 STRING Property Info Mineral Rights Descr
Standard 1892 DECIMAL_2 HELOC Min Advance Amt
Standard 1895 DECIMAL_2 Prequal Minimum Payment
Standard 1986 DECIMAL_2 HELOC Termination Fee
Standard 1987 INTEGER HELOC Termination Fee Mos
Standard 2364 STRING Underwriting Flood Info Determination Number
Standard 2365 DATE Underwriting Flood Info Determination Date
Standard 2831 DECIMAL_2 Trans Details Minimum Late Charge
Standard 2940 STRING Lock Request Borr Minimum FICO Score
Standard 2941 STRING Lock Request Co-Borr Minimum FICO Score
Standard 3331 STRING 2 Conforming Loan Indicator
Standard 3557 DECIMAL_3 First Adjustment Minimum Value 8.1
Standard 4472 YN 2 HELOC Force Minimum Payment 18.4
Standard 4483 YN 2 HELOC Initial Force Minimum Payment 18.4
Standard BE0014 DATE Borr Employer Date Terminated
Standard CD1.X13 DECIMAL_2 Closing Disclosure - Projected Calculation - Column 1 - Minimum Monthly Payment 15.1
Standard CD1.X17 DECIMAL_2 Closing Disclosure - Projected Calculation - Column 2 - Minimum Principal and Interest Payment 15.1
Standard CD1.X22 DECIMAL_2 Closing Disclosure - Projected Calculation - Column 2 - Minimum Monthly Payment 15.1
Standard CD1.X26 DECIMAL_2 Closing Disclosure - Projected Calculation - Column 3 - Minimum Principal and Interest Payment 15.1
Standard CD1.X31 DECIMAL_2 Closing Disclosure - Projected Calculation - Column 3 - Minimum Monthly Payment 15.1
Standard CD1.X35 DECIMAL_2 Closing Disclosure - Projected Calculation - Column 4 - Minimum Principal and Interest Payment 15.1
Standard CD1.X40 DECIMAL_2 Closing Disclosure - Projected Calculation - Column 4 - Minimum Monthly Payment 15.1
Standard CD1.X8 DECIMAL_2 Closing Disclosure - Projected Calculation - Column 1 - Minimum Principal and Interest Payment 15.1
Standard CD1.XD13 STRING Closing Disclosure-Projected Calculation-Column 1-Minimum Monthly Payment UI Value 15.1
Standard CD1.XD17 STRING Closing Disclosure-Projected Calculation-Column 2-Minimum Principal and Interest Payment UI Value 15.1
Standard CD1.XD22 STRING Closing Disclosure-Projected Calculation-Column 2-Minimum Monthly Payment UI Value 15.1
Standard CD1.XD26 STRING Closing Disclosure-Projected Calculation-Column 3-Minimum Principal and Interest Payment UI Value 15.1
Standard CD1.XD31 STRING Closing Disclosure-Projected Calculation-Column 3-Minimum Monthly Payment UI Value 15.1
Standard CD1.XD35 STRING Closing Disclosure-Projected Calculation-Column 4-Minimum Principal and Interest Payment UI Value 15.1
Standard CD1.XD40 STRING Closing Disclosure-Projected Calculation-Column 4-Minimum Monthly Payment UI Value 15.1
Standard CD1.XD8 STRING Closing Disclosure-Projected Calculation-Column 1-Minimum Principal and Interest Payment UI Value 15.1
Standard CD4.X30 STRING First Change Min Amount 15.1
Standard CD4.X35 DECIMAL_2 First Change Min Amt 15.1
Standard CE0014 DATE Co-Borr Employer Date Terminated
Standard CLOSING.SCTYISTRMTLAMINATTYFEEAMT DECIMAL_2 Ellie Mae Closing Document Override - LA Minimum Attorney Fee Amount 8.1
Standard CNVROPT.MINRATEADJ DECIMAL_3 Conversion Option Min. Rate Adj. 8.1
Standard CONST.X47 YN 2 Construction Management Project Data - Flood Hazard Determination Indicator 16.3
Standard CONST.X48 DATE Construction Management Project Data - Flood Hazard Determination Date 16.3
Standard CONST.X55 INTEGER Construction Management Project Data - Minimum days between disbursements 16.3
Standard DISCLOSURE.X231 STRING State Disc - PMI Termination Conditions 1
Standard DISCLOSURE.X232 STRING State Disc - PMI Termination Conditions 2
Standard DISCLOSURE.X233 STRING State Disc - PMI Termination Conditions 3
Standard DISCLOSURE.X238 STRING State Disc - Method Used to Determine Commitment Fee
Standard DISCLOSURE.X245 INTEGER State Disc - Attorney Services Time (Minutes)
Standard DISCLOSURE.X248 STRING State Disc - Basis for Determining Atty Services Total Amt
Standard DISCLOSURE.X250 STRING 2 State Disc - MD Right to Rescind Purchase Contract Terminates
Standard DISCLOSURE.X266 STRING State Disc - Method Used to Determine Lock-In Rate Descr
Standard DISCLOSURE.X525 YN 2 State Disc - Method To Determine Int Rate at Closing Disclosed
Virtual DOCS.CLOSING.SCTYISTRMTLAMINATTYFEEAMT DECIMAL_2 Closing Docs - LA Minimum Attorney Fee Amount 8.1
Standard HELOC.MINADVPCT DECIMAL_3 HELOC Minimum Draw Period Payment 8.1
Standard HELOC.MINPMTLESSTHANAMT DECIMAL_2 HELOC Minimum Payment Less Than Amt 8.1
Standard HELOC.MINPMTUNPDBALAMT DECIMAL_2 HELOC Minimum Payment UPB Amt 8.1
Standard HELOC.MINPMTUPB DECIMAL_3 HELOC Min. Payment UPB 8.1
Standard HELOC.MINREPMTPCT DECIMAL_3 HELOC Minimum Repay Period Payment 8.1
Standard HELOC.RTDCHKCHGMIN DECIMAL_2 HELOC Returned Check Charge Min. 8.1
Standard HTD0005 DECIMAL_2 REGZ Draw/Repay Period Draw Min Mo Pymt
Standard HTR0005 DECIMAL_2 REGZ Draw/Repay Period Repay Min Mo Pymt
Standard HUD49 YN 2 Servicer to refund Mtg Ins Cushion upon termination
Standard L290 STRING Fees Title Examination Descr
Standard L291 DECIMAL_2 Fees Title Examination Borr
Standard L292 DECIMAL_2 Fees Title Examination Seller
Standard LCP.X28 DECIMAL_2 Loan Compensation Plan - Loan Officer Plan Details - Base Plan Minimum Amount 8.1
Standard LCP.X9 DECIMAL_2 Loan Compensation Plan - Wholesale/Broker Plan Details - Base Plan Minimum Amount 8.1
Standard LE1.X42 DECIMAL_2 Loan Estimate - Projected Calculation - Column 1 - Minimum Principal and Interest Payment 15.1
Standard LE1.X47 INTEGER Loan Estimate - Projected Calculation - Column 1 - Minimum Monthly Payment 15.1
Standard LE1.X51 DECIMAL_2 Loan Estimate - Projected Calculation - Column 2 - Minimum Principal and Interest Payment 15.1
Standard LE1.X56 INTEGER Loan Estimate - Projected Calculation - Column 2 - Minimum Monthly Payment 15.1
Standard LE1.X60 DECIMAL_2 Loan Estimate - Projected Calculation - Column 3 - Minimum Principal and Interest Payment 15.1
Standard LE1.X65 INTEGER Loan Estimate - Projected Calculation - Column 3 - Minimum Monthly Payment 15.1
Standard LE1.X69 DECIMAL_2 Loan Estimate - Projected Calculation - Column 4 - Minimum Principal and Interest Payment 15.1
Standard LE1.X74 INTEGER Loan Estimate - Projected Calculation - Column 4 - Minimum Monthly Payment 15.1
Standard LE1.XD42 STRING Loan Estimate - Projected Calculation - Column 1 - Minimum Principal and Interest Payment UI Value 15.1
Standard LE1.XD47 STRING Loan Estimate - Projected Calculation - Column 1 - Minimum Monthly Payment UI Value 15.1
Standard LE1.XD51 STRING Loan Estimate - Projected Calculation - Column 2 - Minimum Principal and Interest Payment UI Value 15.1
Standard LE1.XD56 STRING Loan Estimate - Projected Calculation - Column 2 - Minimum Monthly Payment UI Value 15.1
Standard LE1.XD60 STRING Loan Estimate - Projected Calculation - Column 3 - Minimum Principal and Interest Payment UI Value 15.1
Standard LE1.XD65 STRING Loan Estimate - Projected Calculation - Column 3 - Minimum Monthly Payment UI Value 15.1
Standard LE1.XD69 STRING Loan Estimate - Projected Calculation - Column 4 - Minimum Principal and Interest Payment UI Value 15.1
Standard LE1.XD74 STRING Loan Estimate - Projected Calculation - Column 4 - Minimum Monthly Payment UI Value 15.1
Virtual LOCKRATE.1484 STRING Rate Lock - Borr Minimum FICO (Most Recent)
Virtual LOCKRATE.1502 STRING Rate Lock - Co-Borr Min FICO (Most Recent)
Virtual LOCKRATE.2940 STRING Rate Lock - Lock Request Borr Minimum FICO Score (Most Recent)
Virtual LOCKRATE.2941 STRING Rate Lock - Lock Request Co-Borr Minimum FICO Score (Most Recent)
Virtual LOCKRATE.AVERAGEDURATION DECIMAL_2 Rate Lock - Average Fulfillments Duration (Minutes)
Virtual LOCKRATE.CONFIRMED.1484 STRING Rate Request - Borr Minimum FICO (Mostly Recent Confirmed)
Virtual LOCKRATE.CONFIRMED.1502 STRING Rate Request - Co-Borr Min FICO (Mostly Recent Confirmed)
Virtual LOCKRATE.CONFIRMED.2940 STRING Rate Request - Lock Request Borr Minimum FICO Score (Mostly Recent Confirmed)
Virtual LOCKRATE.CONFIRMED.2941 STRING Rate Request - Lock Request Co-Borr Minimum FICO Score (Mostly Recent Confirmed)
Virtual LOCKRATE.DENIED.1484 STRING Rate Lock Denial - Borr Minimum FICO (Most Recent) 8.1
Virtual LOCKRATE.DENIED.1502 STRING Rate Lock Denial - Co-Borr Min FICO (Most Recent) 8.1
Virtual LOCKRATE.DENIED.2940 STRING Rate Lock Denial - Lock Request Borr Minimum FICO Score (Most Recent) 8.1
Virtual LOCKRATE.DENIED.2941 STRING Rate Lock Denial - Lock Request Co-Borr Minimum FICO Score (Most Recent) 8.1
Virtual LOCKRATE.REQUEST.1484 STRING Rate Lock Request - Borr Minimum FICO (Most Recent) 8.1
Virtual LOCKRATE.REQUEST.1502 STRING Rate Lock Request - Co-Borr Min FICO (Most Recent) 8.1
Virtual LOCKRATE.REQUEST.2940 STRING Rate Lock Request - Lock Request Borr Minimum FICO Score (Most Recent) 8.1
Virtual LOCKRATE.REQUEST.2941 STRING Rate Lock Request - Lock Request Co-Borr Minimum FICO Score (Most Recent) 8.1
Virtual LOCKRATE1.1484 STRING Rate Lock - Borr Minimum FICO (Previous 1)
Virtual LOCKRATE1.1502 STRING Rate Lock - Co-Borr Min FICO (Previous 1)
Virtual LOCKRATE1.2940 STRING Rate Lock - Lock Request Borr Minimum FICO Score (Previous 1)
Virtual LOCKRATE1.2941 STRING Rate Lock - Lock Request Co-Borr Minimum FICO Score (Previous 1)
Virtual LOCKRATE1.DENIED.1484 STRING Rate Lock Denial - Borr Minimum FICO (Previous 1) 8.1
Virtual LOCKRATE1.DENIED.1502 STRING Rate Lock Denial - Co-Borr Min FICO (Previous 1) 8.1
Virtual LOCKRATE1.DENIED.2940 STRING Rate Lock Denial - Lock Request Borr Minimum FICO Score (Previous 1) 8.1
Virtual LOCKRATE1.DENIED.2941 STRING Rate Lock Denial - Lock Request Co-Borr Minimum FICO Score (Previous 1) 8.1
Virtual LOCKRATE1.REQUEST.1484 STRING Rate Lock Request - Borr Minimum FICO (Previous 1) 8.1
Virtual LOCKRATE1.REQUEST.1502 STRING Rate Lock Request - Co-Borr Min FICO (Previous 1) 8.1
Virtual LOCKRATE1.REQUEST.2940 STRING Rate Lock Request - Lock Request Borr Minimum FICO Score (Previous 1) 8.1
Virtual LOCKRATE1.REQUEST.2941 STRING Rate Lock Request - Lock Request Co-Borr Minimum FICO Score (Previous 1) 8.1
Virtual LOCKRATE2.1484 STRING Rate Lock - Borr Minimum FICO (Previous 2)
Virtual LOCKRATE2.1502 STRING Rate Lock - Co-Borr Min FICO (Previous 2)
Virtual LOCKRATE2.2940 STRING Rate Lock - Lock Request Borr Minimum FICO Score (Previous 2)
Virtual LOCKRATE2.2941 STRING Rate Lock - Lock Request Co-Borr Minimum FICO Score (Previous 2)
Virtual LOCKRATE2.DENIED.1484 STRING Rate Lock Denial - Borr Minimum FICO (Previous 2) 8.1
Virtual LOCKRATE2.DENIED.1502 STRING Rate Lock Denial - Co-Borr Min FICO (Previous 2) 8.1
Virtual LOCKRATE2.DENIED.2940 STRING Rate Lock Denial - Lock Request Borr Minimum FICO Score (Previous 2) 8.1
Virtual LOCKRATE2.DENIED.2941 STRING Rate Lock Denial - Lock Request Co-Borr Minimum FICO Score (Previous 2) 8.1
Virtual LOCKRATE2.REQUEST.1484 STRING Rate Lock Request - Borr Minimum FICO (Previous 2) 8.1
Virtual LOCKRATE2.REQUEST.1502 STRING Rate Lock Request - Co-Borr Min FICO (Previous 2) 8.1
Virtual LOCKRATE2.REQUEST.2940 STRING Rate Lock Request - Lock Request Borr Minimum FICO Score (Previous 2) 8.1
Virtual LOCKRATE2.REQUEST.2941 STRING Rate Lock Request - Lock Request Co-Borr Minimum FICO Score (Previous 2) 8.1
Virtual LOCKRATE3.1484 STRING Rate Request - Borr Minimum FICO (Most Recent)
Virtual LOCKRATE3.1502 STRING Rate Request - Co-Borr Min FICO (Most Recent)
Virtual LOCKRATE3.2940 STRING Rate Request - Lock Request Borr Minimum FICO Score (Most Recent)
Virtual LOCKRATE3.2941 STRING Rate Request - Lock Request Co-Borr Minimum FICO Score (Most Recent)
Standard MAX23K.X115 DECIMAL_2 FHA 203k - Rehabilitation Escrow Amount Balance (for Future Draws) = 6A minus 6B 16.1
Standard NTB.X41 YN 2 Net Tangible Benefit Existing Loan Info - Eliminating a negative amortization feature? 8.1
Standard NTB.X42 YN 2 Net Tangible Benefit Existing Loan Info - Eliminating a balloon payment feature? 8.1
Standard NTB.X45 YN 2 Net Tangible Benefit Existing Loan Info - Eliminating private mortgage insurance? 8.1
Standard NTB.X48 YN 2 Net Tangible Benefit Existing Loan Info - The new loan is guaranteed, originated, or funded by the Federal Housing Administration, the Department of Veterans Affairs, or other State or federal housing finance agencies.? 8.1
Standard NTB.X49 YN 2 Net Tangible Benefit Existing Loan Info - The existing loan is guaranteed, originated, or funded by the Federal Housing Administration, the Department of Veterans Affairs, or other State or federal housing finance agencies. 8.1
Standard NTB.X55 YN 2 Net Tangible Benefit Existing Loan Info - The borrower's monthly payment to pay the new consolidated debt is a minimum of 20% lower than the total of all monthly...? 8.1
Standard NTB.X66 YN 2 Net Tangible Benefit Existing Loan Info - Lender Has Determined That This New Home Loan is in The Borrowers Interest. 8.1
Virtual PRECON.AC STRING Preliminary Conditions AC ALL
Virtual PRECON.ACCOUNT INTEGER Preliminary Conditions AC Count
Virtual PRECON.ACFULFILLED STRING Preliminary Conditions AC Fulfilled
Virtual PRECON.ACFULFILLEDCOUNT INTEGER Fulfilled Preliminary Conditions AC Count
Virtual PRECON.ACOPEN STRING Preliminary Conditions AC Not Fulfilled
Virtual PRECON.ACOPENCOUNT INTEGER Open Preliminary Conditions AC Count
Virtual PRECON.ALL STRING Preliminary Conditions ALL
Virtual PRECON.ALLCOUNT INTEGER Preliminary Conditions Count
Virtual PRECON.ALLFULFILLED STRING Preliminary Conditions Fulfilled
Virtual PRECON.ALLOPEN STRING Preliminary Conditions Not Fulfilled
Virtual PRECON.FULFILLEDCOUNT INTEGER Fulfilled Preliminary Conditions Count
Virtual PRECON.OPENCOUNT INTEGER Open Preliminary Conditions Count
Virtual PRECON.PTA STRING Preliminary Conditions PTA ALL
Virtual PRECON.PTACOUNT INTEGER Preliminary Conditions PTA Count
Virtual PRECON.PTAFULFILLED STRING Preliminary Conditions PTA Fulfilled
Virtual PRECON.PTAFULFILLEDCOUNT INTEGER Fulfilled Preliminary Conditions PTA Count
Virtual PRECON.PTAOPEN STRING Preliminary Conditions PTA Not Fulfilled
Virtual PRECON.PTAOPENCOUNT INTEGER Open Preliminary Conditions PTA Count
Virtual PRECON.PTD STRING Preliminary Conditions PTD ALL
Virtual PRECON.PTDCOUNT INTEGER Preliminary Conditions PTD Count
Virtual PRECON.PTDFULFILLED STRING Preliminary Conditions PTD Fulfilled
Virtual PRECON.PTDFULFILLEDCOUNT INTEGER Fulfilled Preliminary Conditions PTD Count
Virtual PRECON.PTDOPEN STRING Preliminary Conditions PTD Not Fulfilled
Virtual PRECON.PTDOPENCOUNT INTEGER Open Preliminary Conditions PTD Count
Virtual PRECON.PTF STRING Preliminary Conditions PTF ALL
Virtual PRECON.PTFCOUNT INTEGER Preliminary Conditions PTF Count
Virtual PRECON.PTFFULFILLED STRING Preliminary Conditions PTF Fulfilled
Virtual PRECON.PTFFULFILLEDCOUNT INTEGER Fulfilled Preliminary Conditions PTF Count
Virtual PRECON.PTFOPEN STRING Preliminary Conditions PTF Not Fulfilled
Virtual PRECON.PTFOPENCOUNT INTEGER Open Preliminary Conditions PTF Count
Virtual PRECON.PTP STRING Preliminary Conditions PTP ALL 8.1
Virtual PRECON.PTPCOUNT INTEGER Preliminary Conditions PTP Count 8.1
Virtual PRECON.PTPFULFILLED STRING Preliminary Conditions PTP Fulfilled 8.1
Virtual PRECON.PTPFULFILLEDCOUNT INTEGER Fulfilled Preliminary Conditions PTP Count 8.1
Virtual PRECON.PTPOPEN STRING Preliminary Conditions PTP Not Fulfilled 8.1
Virtual PRECON.PTPOPENCOUNT INTEGER Open Preliminary Conditions PTP Count 8.1
Virtual PRELIMINARYCONDITION.ADDEDBY STRING Preliminary Condition Added By
Virtual PRELIMINARYCONDITION.CATEGORY STRING Preliminary Condition Category
Virtual PRELIMINARYCONDITION.COMMENTS STRING Preliminary Condition Comments
Virtual PRELIMINARYCONDITION.DATEADDED DATE Preliminary Condition Date Added
Virtual PRELIMINARYCONDITION.DATEFULFILLED DATE Preliminary Condition Date Fulfilled
Virtual PRELIMINARYCONDITION.DESCRIPTION STRING Preliminary Condition Description
Virtual PRELIMINARYCONDITION.FULFILLED YN Preliminary Condition Is Fulfilled
Virtual PRELIMINARYCONDITION.FULFILLEDBY STRING Preliminary Condition Fulfilled By
Virtual PRELIMINARYCONDITION.PRIORTO STRING Preliminary Condition Prior To
Virtual PRELIMINARYCONDITION.STATUS STRING Preliminary Condition Status
Virtual PRELIMINARYCONDITION.TITLE STRING Preliminary Condition Title
Standard PREQUAL.X329 DECIMAL_2 Rent/Own Minus Loan Balance
Standard PREQUAL.X330 DECIMAL_2 Rent/Own Minus Down Pymt/Initial Closing Costs
Standard PREQUAL.X56 DECIMAL_2 Loan Comp Min Income Scenario 2
Standard PREQUAL.X7 DECIMAL_2 Loan Comp Min Income
Standard PREQUAL.X96 DECIMAL_2 Loan Comp Min Income Scenario 3
Standard RE88395.X245 DECIMAL_2 MLDS Title Examination Others
Standard RE88395.X246 DECIMAL_2 MLDS Title Examination Broker
Standard RE88395.X252 DECIMAL_2 MLDS Pymt S1 Min Monthly Pymt
Standard RE88395.X253 DECIMAL_2 MLDS Pymt S1 Min Difference
Standard RE88395.X260 DECIMAL_2 MLDS Pymt S2 Min Monthly Pymt
Standard RE88395.X261 DECIMAL_2 MLDS Pymt S2 Min Difference
Standard RE88395.X268 DECIMAL_2 MLDS Pymt S3 Min Monthly Pymt
Standard RE88395.X269 DECIMAL_2 MLDS Pymt S3 Min Difference
Standard RE88395.X276 DECIMAL_2 MLDS Pymt S4 Min Monthly Pymt
Standard RE88395.X277 DECIMAL_2 MLDS Pymt S4 Min Difference
Standard RE88395.X284 DECIMAL_2 MLDS Pymt S5 Min Monthly Pymt
Standard RE88395.X285 DECIMAL_2 MLDS Pymt S5 Min Difference
Standard RE88395.X292 DECIMAL_2 MLDS Pymt S6 Min Monthly Pymt
Standard RE88395.X293 DECIMAL_2 MLDS Pymt S6 Min Difference
Standard S32DISC.X140 YN 2 Sec 32 Title Examination Lender/Brkr Rec Portion
Standard S32DISC.X141 YN 2 Sec 32 Title Examination To Be Financed
Standard SYS.X122 YN 2 Fees Title Examination APR
Standard SYS.X132 YN 2 Fees Title Examination FHA
Standard SYS.X172 YN 2 Fees Title Examination POC
Standard SYS.X405 STRING 4 Fees Title Examination Paid By
Standard SYS.X406 STRING 6 Fees Title Examination Paid To
Standard SYS.X450 STRING Funding Title Charges Title Examination Checked Borrower
Standard SYS.X518 STRING Funding Title Charges Title Examination Checked Seller
Standard ULDD.FNM.ARMINDEXTYPE STRING 80 ULDD Fannie ARM Index Type 8.1 9.1 15.2 16.1
Standard ULDD.FRE.ARMINDEXTYPE STRING 5 ULDD Freddie ARM Index Type 8.1
Standard ULDD.X75 DECIMAL_3 ULDD - Pool Minimum Accrual Rate
Standard USDA.X209 STRING USDA - Annual Income Calculation - Calculate and Record how the calculation of each income source/type was determined in the space below line 1 9.1
Standard USDA.X210 STRING USDA - Annual Income Calculation - Calculate and Record how the calculation of each income source/type was determined in the space below line 2 9.1
Standard USDA.X211 STRING USDA - Annual Income Calculation - Calculate and Record how the calculation of each income source/type was determined in the space below line 3 9.1
Standard USDA.X212 STRING USDA - Annual Income Calculation - Calculate and Record how the calculation of each income source/type was determined in the space below line 4 9.1
Standard USDA.X213 STRING USDA - Annual Income Calculation - Calculate and Record how the calculation of each income source/type was determined in the space below line 5 9.1
Standard VARRRWS.X7 DECIMAL_2 VA Preliminary Loan Amt Total
Standard VAVOB.X1 STRING VA To Admin of Benefits Name
Standard VAVOB.X2 STRING VA To Admin of Benefits Attn
Standard VAVOB.X3 STRING VA To Admin of Benefits Street
Standard VAVOB.X4 STRING VA To Admin of Benefits City
Standard VAVOB.X5 STATE VA To Admin of Benefits State
Standard VAVOB.X6 ZIPCODE VA To Admin of Benefits Zip
Standard VEND.X1017 DECIMAL_2 File Contacts General Contractor General Liability Insurance Min 16.3 17.1
Standard VEND.X1018 DECIMAL_2 File Contacts General Contractor Employer Liability Insurance Min 16.3 17.1